This is the latest recevied weather packets stored in our database for station/object KG4GJX. If no packets are shown the sender has not sent any weather packets the latest 10 day(s).
| Time | Temp. | Humidity | Pressure | Rain* | Wind** | Luminosity | Snow |
|---|---|---|---|---|---|---|---|
| 1787940403 | 31.67° C | 60% | 1017.9 hPa | 0 mm | - | - | - |
| 1787939740 | 31.67° C | 56% | 1018.2 hPa | 0 mm | - | - | - |
| 1787939078 | 31.11° C | 63% | 1018.2 hPa | 0 mm | - | - | - |
| 1787938416 | 31.11° C | 63% | 1018.2 hPa | 0 mm | - | - | - |
| 1787937753 | 30.56° C | 69% | 1018.2 hPa | 0 mm | - | - | - |
| 1787937091 | 30° C | 65% | 1018.2 hPa | 0 mm | - | - | - |
| 1787936429 | 30° C | 69% | 1018.2 hPa | 0 mm | - | - | - |
| 1787935766 | 30° C | 70% | 1018.6 hPa | 0 mm | - | - | - |
| 1787935103 | 29.44° C | 75% | 1018.6 hPa | 0 mm | - | - | - |
| 1787934441 | 29.44° C | 78% | 1018.6 hPa | 0 mm | - | - | - |
| 1787933778 | 28.33° C | 78% | 1018.6 hPa | 0 mm | - | - | - |
| 1787933116 | 28.33° C | 80% | 1018.6 hPa | 0 mm | - | - | - |
| 1787932454 | 28.33° C | 81% | 1018.9 hPa | 0 mm | - | - | - |
| 1787931791 | 28.33° C | 82% | 1018.9 hPa | 0 mm | - | - | - |
| 1787931129 | 27.78° C | 86% | 1018.9 hPa | 0 mm | - | - | - |
| 1787930467 | 27.78° C | 88% | 1018.9 hPa | 0 mm | - | - | - |
| 1787929804 | 27.22° C | 90% | 1018.9 hPa | 0 mm | - | - | - |
| 1787929142 | 26.67° C | 96% | 1018.9 hPa | 0 mm | - | - | - |
| 1787928479 | 26.11° C | 100% | 1018.9 hPa | 0 mm | - | - | - |
| 1787927816 | 25° C | 100% | 1018.9 hPa | 0 mm | - | - | - |
| 1787927154 | 25° C | 100% | 1018.6 hPa | 0 mm | - | - | - |
| 1787926492 | 23.89° C | 100% | 1018.6 hPa | 0 mm | - | - | - |
| 1787925167 | 23.33° C | 100% | 1018.6 hPa | 0 mm | - | - | - |
| 1787924505 | 23.33° C | 100% | 1018.2 hPa | 0 mm | - | - | - |
| 1787923182 | 22.78° C | 100% | 1018.2 hPa | 0 mm | - | - | - |
* Rain latest hour (hover to see other rain measurements)
** Current wind speed in m/s (hover to see current wind gust speed)